When you browse on this site, cookies collect data to enhance your experience and personalize the content and advertising you see.
Visit our Privacy Policy to learn more. By continuing to use the site, you agree to this use of cookies and data.
  • In Switzerland
  • List of Countries
  • For 7 days
  • Water Temperature
  • Weather Map
  • Weather Widgets
  • user-avatar
    Login

    Hourly Weather Tolna

    Today, 25 August, Sunday

    Time Temperature Precipitation Wind Pressure Humidity
    00:00 +24°C° 0 mm 3 mps 755 mmHg 70%
    01:00 +24°C° 0 mm 3 mps 755 mmHg 75%
    02:00 +22°C° 0 mm 3 mps 755 mmHg 77%
    03:00 +22°C° 0 mm 3 mps 755 mmHg 78%
    04:00 +22°C° 0 mm 3 mps 755 mmHg 80%
    05:00 +24°C° 0 mm 3 mps 755 mmHg 75%
    06:00 +24°C° 0 mm 3 mps 756 mmHg 70%
    07:00 +25°C° 0 mm 4 mps 756 mmHg 66%
    08:00 +28°C° 0 mm 4 mps 756 mmHg 56%
    09:00 +30°C° 0 mm 4 mps 756 mmHg 46%
    10:00 +33°C° 0 mm 4 mps 756 mmHg 36%
    11:00 +34°C° 0 mm 4 mps 756 mmHg 34%
    12:00 +35°C° 0 mm 5 mps 755 mmHg 32%
    13:00 +36°C° 0 mm 5 mps 755 mmHg 30%
    14:00 +36°C° 0 mm 5 mps 755 mmHg 30%
    15:00 +35°C° 0 mm 5 mps 754 mmHg 31%
    16:00 +35°C° 0 mm 4 mps 754 mmHg 32%
    17:00 +33°C° 0 mm 4 mps 754 mmHg 37%
    18:00 +30°C° 0 mm 4 mps 754 mmHg 41%
    19:00 +28°C° 0 mm 3 mps 754 mmHg 46%
    20:00 +27°C° 0.3 mm 3 mps 755 mmHg 52%
    21:00 +25°C° 0.3 mm 2 mps 755 mmHg 59%
    22:00 +24°C° 0.3 mm 2 mps 755 mmHg 66%
    23:00 +24°C° 0.5 mm 2 mps 755 mmHg 70%

    Tomorrow, 26 August, Monday

    Time Temperature Precipitation Wind Pressure Humidity
    00:00 +23°C° 0.5 mm 1 mps 755 mmHg 74%
    01:00 +22°C° 0.5 mm 1 mps 755 mmHg 78%
    02:00 +22°C° 0 mm 1 mps 755 mmHg 78%
    03:00 +21°C° 0 mm 2 mps 755 mmHg 78%
    04:00 +21°C° 0 mm 2 mps 755 mmHg 78%
    05:00 +23°C° 0 mm 2 mps 755 mmHg 76%
    06:00 +24°C° 0 mm 2 mps 755 mmHg 74%
    07:00 +24°C° 0 mm 2 mps 755 mmHg 72%
    08:00 +26°C° 0 mm 3 mps 755 mmHg 65%
    09:00 +28°C° 0 mm 3 mps 756 mmHg 58%
    10:00 +30°C° 0 mm 4 mps 756 mmHg 51%
    11:00 +32°C° 0 mm 4 mps 755 mmHg 47%
    12:00 +33°C° 0 mm 4 mps 755 mmHg 44%
    13:00 +34°C° 0 mm 4 mps 755 mmHg 40%
    14:00 +34°C° 0 mm 4 mps 754 mmHg 39%
    15:00 +35°C° 0 mm 4 mps 754 mmHg 38%
    16:00 +35°C° 0 mm 4 mps 753 mmHg 37%
    17:00 +33°C° 0 mm 3 mps 753 mmHg 41%
    18:00 +30°C° 0 mm 2 mps 754 mmHg 45%
    19:00 +29°C° 0 mm 2 mps 754 mmHg 49%
    20:00 +27°C° 0.5 mm 2 mps 754 mmHg 55%
    21:00 +26°C° 0.5 mm 2 mps 754 mmHg 61%
    22:00 +25°C° 0.5 mm 2 mps 754 mmHg 67%
    23:00 +24°C° 0.1 mm 2 mps 754 mmHg 69%

    Day after tomorrow, 27 August, Tuesday

    Time Temperature Precipitation Wind Pressure Humidity
    00:00 +24°C° 0.1 mm 2 mps 754 mmHg 72%
    01:00 +23°C° 0.1 mm 2 mps 754 mmHg 74%
    02:00 +23°C° 0 mm 2 mps 754 mmHg 76%
    03:00 +21°C° 0 mm 2 mps 754 mmHg 78%
    04:00 +21°C° 0 mm 2 mps 754 mmHg 79%
    05:00 +23°C° 0.3 mm 2 mps 754 mmHg 79%
    06:00 +23°C° 0.3 mm 2 mps 754 mmHg 78%
    07:00 +24°C° 0.3 mm 2 mps 755 mmHg 77%
    08:00 +25°C° 0.1 mm 2 mps 755 mmHg 69%
    09:00 +27°C° 0.1 mm 3 mps 755 mmHg 61%
    10:00 +29°C° 0.1 mm 3 mps 755 mmHg 53%
    11:00 +31°C° 0 mm 3 mps 755 mmHg 47%
    12:00 +33°C° 0 mm 3 mps 755 mmHg 42%
    13:00 +34°C° 0 mm 3 mps 755 mmHg 37%
    14:00 +34°C° 0 mm 3 mps 754 mmHg 37%
    15:00 +35°C° 0 mm 3 mps 754 mmHg 36%
    16:00 +35°C° 0 mm 3 mps 754 mmHg 36%
    17:00 +32°C° 0 mm 2 mps 754 mmHg 41%
    18:00 +30°C° 0 mm 1 mps 754 mmHg 46%
    19:00 +26°C° 0 mm 0 mps 754 mmHg 50%
    20:00 +27°C° 0 mm 1 mps 754 mmHg 51%
    21:00 +27°C° 0 mm 1 mps 754 mmHg 52%
    22:00 +26°C° 0 mm 1 mps 754 mmHg 53%
    23:00 +26°C° 0 mm 1 mps 754 mmHg 54%

    28 August, Wednesday

    Time Temperature Precipitation Wind Pressure Humidity
    00:00 +25°C° 0 mm 1 mps 754 mmHg 55%
    01:00 +25°C° 0 mm 1 mps 754 mmHg 56%
    02:00 +24°C° 0 mm 2 mps 754 mmHg 58%
    03:00 +24°C° 0 mm 2 mps 754 mmHg 59%
    04:00 +23°C° 0 mm 2 mps 754 mmHg 61%
    05:00 +24°C° 0 mm 2 mps 754 mmHg 59%
    06:00 +25°C° 0 mm 2 mps 754 mmHg 56%
    07:00 +26°C° 0 mm 2 mps 754 mmHg 54%
    08:00 +29°C° 0 mm 2 mps 754 mmHg 46%
    09:00 +31°C° 0 mm 3 mps 754 mmHg 38%
    10:00 +34°C° 0 mm 3 mps 754 mmHg 31%
    11:00 +35°C° 0 mm 3 mps 754 mmHg 28%
    12:00 +36°C° 0 mm 4 mps 753 mmHg 25%
    13:00 +37°C° 0 mm 4 mps 753 mmHg 22%
    14:00 +37°C° 0 mm 4 mps 753 mmHg 23%
    15:00 +37°C° 0 mm 4 mps 752 mmHg 23%
    16:00 +37°C° 0 mm 4 mps 752 mmHg 23%
    17:00 +35°C° 0 mm 3 mps 752 mmHg 27%
    18:00 +31°C° 0 mm 3 mps 752 mmHg 31%
    19:00 +29°C° 0 mm 2 mps 752 mmHg 35%
    20:00 +28°C° 0 mm 2 mps 752 mmHg 36%
    21:00 +27°C° 0 mm 2 mps 752 mmHg 38%
    22:00 +26°C° 0 mm 2 mps 752 mmHg 39%
    23:00 +26°C° 0 mm 2 mps 752 mmHg 39%

    29 August, Thursday

    Time Temperature Precipitation Wind Pressure Humidity
    00:00 +25°C° 0 mm 2 mps 752 mmHg 39%
    01:00 +25°C° 0 mm 2 mps 752 mmHg 40%
    02:00 +24°C° 0 mm 2 mps 752 mmHg 40%
    03:00 +24°C° 0 mm 2 mps 752 mmHg 41%
    04:00 +23°C° 0 mm 1 mps 752 mmHg 42%
    05:00 +24°C° 0 mm 2 mps 752 mmHg 41%
    06:00 +25°C° 0 mm 2 mps 752 mmHg 40%
    07:00 +26°C° 0 mm 3 mps 752 mmHg 39%
    08:00 +29°C° 0 mm 3 mps 752 mmHg 34%
    09:00 +31°C° 0 mm 3 mps 752 mmHg 29%
    10:00 +34°C° 0 mm 4 mps 752 mmHg 24%
    11:00 +35°C° 0 mm 4 mps 752 mmHg 22%
    12:00 +36°C° 0 mm 5 mps 752 mmHg 21%
    13:00 +37°C° 0 mm 5 mps 752 mmHg 19%
    14:00 +37°C° 0 mm 5 mps 751 mmHg 19%
    15:00 +37°C° 0 mm 4 mps 751 mmHg 20%
    16:00 +36°C° 0 mm 4 mps 751 mmHg 20%
    17:00 +34°C° 0 mm 3 mps 751 mmHg 23%
    18:00 +31°C° 0 mm 3 mps 751 mmHg 27%
    19:00 +28°C° 0 mm 2 mps 751 mmHg 31%
    20:00 +27°C° 0 mm 2 mps 751 mmHg 32%
    21:00 +27°C° 0 mm 2 mps 752 mmHg 34%
    22:00 +26°C° 0 mm 2 mps 752 mmHg 36%
    23:00 +25°C° 0 mm 2 mps 752 mmHg 37%

    30 August, Friday

    Time Temperature Precipitation Wind Pressure Humidity
    00:00 +24°C° 0 mm 1 mps 752 mmHg 38%
    01:00 +24°C° 0 mm 1 mps 752 mmHg 39%
    02:00 +23°C° 0 mm 1 mps 753 mmHg 39%
    03:00 +21°C° 0 mm 0 mps 753 mmHg 40%
    04:00 +21°C° 0 mm 0 mps 753 mmHg 40%
    05:00 +24°C° 0 mm 1 mps 753 mmHg 39%
    06:00 +25°C° 0 mm 1 mps 754 mmHg 39%
    07:00 +26°C° 0 mm 1 mps 754 mmHg 39%
    08:00 +28°C° 0 mm 1 mps 754 mmHg 36%
    09:00 +29°C° 0 mm 1 mps 755 mmHg 32%
    10:00 +31°C° 0 mm 1 mps 755 mmHg 29%
    11:00 +32°C° 0 mm 1 mps 755 mmHg 27%
    12:00 +34°C° 0 mm 2 mps 754 mmHg 26%
    13:00 +35°C° 0 mm 2 mps 754 mmHg 24%
    14:00 +35°C° 0 mm 2 mps 754 mmHg 25%
    15:00 +35°C° 0 mm 3 mps 753 mmHg 26%
    16:00 +34°C° 0 mm 3 mps 753 mmHg 27%
    17:00 +31°C° 0 mm 3 mps 753 mmHg 33%
    18:00 +29°C° 0 mm 3 mps 753 mmHg 39%
    19:00 +27°C° 0 mm 2 mps 753 mmHg 45%
    20:00 +26°C° 0 mm 2 mps 754 mmHg 48%
    21:00 +25°C° 0 mm 2 mps 754 mmHg 51%
    22:00 +24°C° 0 mm 2 mps 754 mmHg 54%
    23:00 +24°C° 0 mm 2 mps 754 mmHg 57%
    Show more